FW0403 Weather Reports


Display with metric or nautical units.
time (UTC)temp
F
wind
direction
speed
MPH
gust
MPH
rain 1hr
in
rain 24hr
in
rain mn
in
humidity
%
barometer
mb
20260508173642 72 36 7.0 14.0 0.00 0.00 0.00 87 1010.6
20260508173135 72 29 6.0 11.0 0.00 0.00 0.00 87 1010.6
20260508172616 72 40 5.0 14.0 0.00 0.00 0.00 87 1010.7
20260508172113 72 29 6.0 14.0 0.00 0.00 0.00 87 1010.6
20260508171607 71 74 6.0 14.0 0.00 0.00 0.00 87 1010.7
20260508171052 71 68 6.0 14.0 0.00 0.00 0.00 87 1011.0
20260508165930 71 80 6.0 12.0 0.00 0.00 0.00 87 1011.1
20260508165434 71 66 6.0 12.0 0.00 0.00 0.00 87 1011.2
20260508164919 71 22 5.0 11.0 0.00 0.00 0.00 87 1011.3
20260508164424 71 25 4.0 12.0 0.00 0.00 0.00 87 1011.6
20260508163257 71 36 5.0 12.0 0.00 0.00 0.00 87 1011.8
20260508162751 71 65 6.0 12.0 0.00 0.00 0.00 87 1011.9
20260508162235 71 11 7.0 14.0 0.00 0.00 0.00 87 1011.8
20260508161049 71 50 8.0 15.0 0.00 0.00 0.00 87 1011.9
20260508160553 71 17 8.0 15.0 0.00 0.00 0.00 87 1011.9
20260508160033 71 40 8.0 15.0 0.00 0.00 0.00 87 1011.8
20260508155517 71 34 8.0 15.0 0.00 0.00 0.00 87 1011.8
20260508154959 71 17 8.0 15.0 0.00 0.00 0.00 87 1011.7
20260508154438 71 42 8.0 15.0 0.00 0.00 0.00 87 1011.9
20260508153926 71 14 8.0 15.0 0.00 0.00 0.00 87 1011.9
20260508153433 71 20 8.0 15.0 0.00 0.00 0.00 87 1012.0
20260508152916 71 45 7.0 14.0 0.00 0.00 0.00 86 1011.9
20260508152405 72 19 8.0 14.0 0.00 0.00 0.00 87 1011.8
20260508151847 72 30 8.0 14.0 0.00 0.00 0.00 86 1011.8
20260508151327 72 32 8.0 17.0 0.00 0.00 0.00 87 1012.0
20260508150805 72 33 8.0 17.0 0.00 0.00 0.00 86 1011.8
20260508145614 73 11 6.0 13.0 0.00 0.00 0.00 86 1011.5
20260508145111 73 18 6.0 11.0 0.00 0.00 0.00 86 1011.4
20260508143930 73 350 7.0 11.0 0.00 0.00 0.00 86 1011.6
20260508143434 73 13 6.0 9.0 0.00 0.00 0.00 86 1011.7
20260508142933 73 7 5.0 9.0 0.00 0.00 0.00 86 1011.8
20260508142416 73 26 4.0 9.0 0.00 0.00 0.00 86 1011.8
20260508141913 73 54 4.0 9.0 0.00 0.00 0.00 86 1011.6
20260508141414 73 32 4.0 9.0 0.00 0.00 0.00 86 1011.6
20260508140908 73 74 5.0 9.0 0.00 0.00 0.00 86 1011.6
20260508140350 73 13 5.0 11.0 0.00 0.00 0.00 86 1011.6
20260508135846 73 22 5.0 11.0 0.00 0.00 0.00 86 1011.5
20260508135339 74 357 5.0 11.0 0.00 0.00 0.00 86 1011.4
20260508134831 75 56 6.0 11.0 0.00 0.00 0.00 86 1011.4
20260508134336 75 80 5.0 10.0 0.00 0.00 0.00 86 1011.5
20260508133825 74 42 5.0 10.0 0.00 0.00 0.00 86 1011.6
20260508133307 74 61 4.0 10.0 0.00 0.00 0.00 86 1011.7
20260508132806 74 65 4.0 10.0 0.00 0.00 0.00 86 1011.9
20260508132246 74 57 5.0 11.0 0.00 0.00 0.00 86 1011.9
20260508131751 74 65 6.0 11.0 0.00 0.00 0.00 86 1011.9
20260508130638 74 88 7.0 16.0 0.00 0.00 0.00 86 1011.8
20260508130123 74 40 8.0 16.0 0.00 0.00 0.00 86 1011.8
20260508125607 74 48 8.0 16.0 0.00 0.00 0.00 85 1011.8
20260508125104 74 63 8.0 14.0 0.00 0.00 0.00 85 1011.7
20260508124546 73 69 8.0 14.0 0.00 0.00 0.00 85 1011.6
20260508124038 73 63 8.0 16.0 0.00 0.00 0.00 85 1011.5
20260508123535 73 69 7.0 16.0 0.00 0.00 0.00 85 1011.4
20260508123021 73 61 7.0 16.0 0.00 0.00 0.00 85 1011.2
20260508122500 73 82 7.0 16.0 0.00 0.00 0.00 85 1011.3
20260508121939 74 48 6.0 12.0 0.00 0.00 0.00 85 1011.4
20260508120757 73 65 5.0 10.0 0.00 0.00 0.00 85 1011.5
20260508120235 74 34 5.0 12.0 0.00 0.00 0.00 85 1011.4
20260508115740 74 82 6.0 12.0 0.00 0.00 0.00 85 1011.5
20260508115230 74 336 6.0 13.0 0.00 0.00 0.00 85 1011.4
20260508114720 74 51 5.0 13.0 0.00 0.00 0.00 85 1011.4
20260508114217 75 63 5.0 13.0 0.00 0.00 0.00 85 1011.5
20260508113717 76 61 6.0 13.0 0.00 0.00 0.00 86 1011.6
20260508113218 76 87 6.0 11.0 0.00 0.00 0.00 86 1011.6
20260508112722 76 101 7.0 11.0 0.00 0.00 0.00 86 1011.4
20260508112215 76 98 7.0 11.0 0.00 0.00 0.00 86 1011.4
20260508111653 76 95 7.0 11.0 0.00 0.00 0.00 86 1011.5
20260508111143 76 80 6.0 11.0 0.00 0.00 0.00 86 1011.5
20260508105954 76 59 6.0 11.0 0.00 0.00 0.00 85 1011.3
20260508105447 77 47 5.0 9.0 0.00 0.00 0.00 85 1011.4
20260508104942 77 61 4.0 10.0 0.00 0.00 0.00 85 1011.5
20260508104431 77 87 5.0 10.0 0.00 0.00 0.00 85 1011.4
20260508103929 77 32 5.0 10.0 0.00 0.00 0.00 85 1011.3
20260508103423 77 69 4.0 10.0 0.00 0.00 0.00 85 1011.2
20260508102926 77 100 4.0 9.0 0.00 0.00 0.00 85 1011.1
20260508102433 77 59 5.0 9.0 0.00 0.00 0.00 85 1011.1
20260508101934 77 90 5.0 9.0 0.00 0.00 0.00 85 1011.2
20260508100750 77 76 5.0 9.0 0.00 0.00 0.00 85 1011.5
20260508100239 77 73 5.0 9.0 0.00 0.00 0.00 85 1011.5
20260508095741 77 75 5.0 9.0 0.00 0.00 0.00 85 1011.5
20260508095226 77 105 5.0 11.0 0.00 0.00 0.00 85 1011.5
20260508094721 77 86 6.0 11.0 0.00 0.00 0.00 85 1011.3
20260508094200 77 64 7.0 11.0 0.00 0.00 0.00 85 1011.1
20260508093644 77 81 7.0 11.0 0.00 0.00 0.00 85 1011.2
20260508093139 77 100 7.0 10.0 0.00 0.00 0.00 85 1011.3
20260508092630 77 110 6.0 10.0 0.00 0.00 0.00 85 1011.5
20260508092119 77 79 5.0 9.0 0.00 0.00 0.00 85 1011.4
20260508091617 77 69 6.0 11.0 0.00 0.00 0.00 85 1011.3
20260508091121 77 88 6.0 11.0 0.00 0.00 0.00 85 1011.2
20260508090628 77 78 5.0 11.0 0.00 0.00 0.00 85 1011.2
20260508090124 77 84 5.0 11.0 0.00 0.00 0.00 85 1011.2
20260508084322 77 57 7.0 10.0 0.00 0.00 0.00 85 1011.3
20260508083148 76 93 7.0 10.0 0.00 0.00 0.00 85 1011.5
20260508082655 76 66 7.0 12.0 0.00 0.00 0.00 85 1011.5
20260508082148 76 100 7.0 12.0 0.00 0.00 0.00 85 1011.5
20260508081645 76 69 7.0 12.0 0.00 0.00 0.00 85 1011.6
20260508081135 76 86 6.0 12.0 0.00 0.00 0.00 84 1011.8
20260508080633 76 87 6.0 11.0 0.00 0.00 0.00 84 1011.7
20260508080135 76 82 6.0 14.0 0.00 0.00 0.00 84 1011.5
20260508075629 76 86 6.0 14.0 0.00 0.00 0.00 84 1011.6
20260508075107 76 48 8.0 14.0 0.00 0.00 0.00 84 1011.7
20260508074550 76 106 9.0 14.0 0.00 0.00 0.00 84 1011.4
20260508073421 76 86 9.0 16.0 0.00 0.00 0.00 84 1011.7
20260508072913 76 90 11.0 16.0 0.00 0.00 0.00 84 1011.8
20260508071735 76 88 11.0 20.0 0.00 0.00 0.00 83 1011.9
20260508071220 76 75 12.0 20.0 0.00 0.00 0.00 83 1011.9
20260508070703 76 93 15.0 21.0 0.00 0.00 0.00 83 1011.4
20260508070143 76 123 16.0 21.0 0.00 0.00 0.00 83 1011.1
20260508065630 76 104 17.0 21.0 0.00 0.00 0.00 82 1011.1
20260508065127 76 77 16.0 21.0 0.00 0.00 0.00 82 1011.1
20260508064634 76 105 15.0 24.0 0.00 0.00 0.00 82 1011.6
20260508063505 77 99 19.0 24.0 0.00 0.01 0.00 81 1010.9
20260508062945 77 84 18.0 24.0 0.00 0.01 0.00 81 1010.9
20260508062438 77 92 17.0 23.0 0.00 0.01 0.00 80 1011.5
20260508061934 77 109 16.0 21.0 0.00 0.01 0.00 80 1011.9
20260508061431 77 100 14.0 20.0 0.00 0.01 0.00 80 1012.0
20260508060925 77 121 14.0 20.0 0.00 0.01 0.00 80 1012.0
20260508060423 77 73 14.0 20.0 0.00 0.01 0.00 79 1012.2
20260508055917 77 137 13.0 24.0 0.00 0.01 0.00 79 1011.9
20260508055424 77 95 13.0 24.0 0.00 0.01 0.00 79 1011.7
20260508054930 77 86 16.0 26.0 0.00 0.01 0.00 78 1011.9
20260508054408 77 92 19.0 26.0 0.00 0.01 0.00 78 1011.7
20260508052616 77 100 19.0 23.0 0.00 0.01 0.00 79 1011.5
20260508052057 77 92 18.0 23.0 0.00 0.01 0.00 79 1011.7
20260508051544 77 90 0.0 22.0 0.00 0.01 0.00 79 1011.6
20260508050427 77 102 15.0 21.0 0.00 0.01 0.00 79 1012.2
20260508045917 77 86 14.0 21.0 0.00 0.01 0.01 79 1012.4
20260508045407 77 100 16.0 21.0 0.00 0.01 0.01 79 1012.5
20260508044904 77 91 17.0 21.0 0.00 0.01 0.01 79 1011.9
20260508044354 77 63 15.0 21.0 0.00 0.01 0.01 79 1012.0
20260508043842 77 68 13.0 17.0 0.00 0.01 0.01 79 1012.3
20260508043350 77 85 13.0 18.0 0.00 0.01 0.01 79 1012.7
20260508042849 77 92 14.0 18.0 0.00 0.01 0.01 79 1012.9
20260508042342 77 103 13.0 19.0 0.00 0.01 0.01 79 1012.8
20260508041840 77 68 13.0 19.0 0.00 0.01 0.01 79 1013.0
20260508041325 77 96 13.0 19.0 0.00 0.01 0.01 79 1013.1
20260508040824 77 92 14.0 19.0 0.00 0.01 0.01 78 1013.0
20260508035640 78 85 13.0 17.0 0.00 0.01 0.01 78 1013.4
20260508035145 78 105 13.0 18.0 0.00 0.01 0.01 78 1013.4
20260508034631 78 86 13.0 18.0 0.00 0.01 0.01 78 1013.4
20260508034114 78 93 14.0 19.0 0.00 0.01 0.01 78 1013.2
20260508031717 78 100 9.0 13.0 0.00 0.01 0.01 78 1013.1
20260508031158 78 92 8.0 13.0 0.00 0.01 0.01 78 1013.1
20260508030646 78 80 8.0 13.0 0.00 0.01 0.01 78 1013.1
20260508030134 78 65 7.0 13.0 0.00 0.01 0.01 77 1013.0
20260508025617 78 88 7.0 13.0 0.00 0.01 0.01 77 1013.3
20260508025124 78 19 8.0 13.0 0.00 0.01 0.01 78 1013.2
20260508024606 78 80 8.0 12.0 0.00 0.01 0.01 77 1013.2
20260508023425 78 80 8.0 14.0 0.00 0.01 0.01 78 1013.0
20260508022919 78 88 8.0 14.0 0.00 0.01 0.01 78 1012.9
20260508022409 78 44 8.0 14.0 0.00 0.01 0.01 78 1012.9
20260508021902 78 98 8.0 14.0 0.00 0.01 0.01 77 1012.8
20260508021404 78 87 7.0 13.0 0.00 0.01 0.01 77 1012.8
20260508020846 78 82 8.0 13.0 0.00 0.01 0.01 77 1012.8
20260508020323 78 64 8.0 13.0 0.00 0.01 0.01 76 1012.8
20260508015819 77 61 7.0 14.0 0.00 0.01 0.01 77 1012.8
20260508014624 77 61 8.0 14.0 0.00 0.01 0.01 76 1012.6
20260508014104 77 46 6.0 13.0 0.00 0.01 0.01 77 1012.7
20260508013553 77 71 6.0 13.0 0.00 0.01 0.01 77 1012.5
20260508013048 77 40 7.0 13.0 0.00 0.01 0.01 77 1012.6
20260508012550 77 14 6.0 13.0 0.00 0.01 0.01 77 1012.5
20260508011408 77 44 6.0 12.0 0.00 0.01 0.01 78 1012.4
20260508010901 77 100 5.0 12.0 0.00 0.01 0.01 78 1012.3
20260508010350 77 82 4.0 12.0 0.00 0.01 0.01 78 1012.3
20260508004549 77 48 6.0 12.0 0.00 0.01 0.01 78 1011.9
20260508004045 77 90 6.0 11.0 0.00 0.01 0.01 79 1011.8
20260508003534 77 71 6.0 11.0 0.00 0.01 0.01 78 1012.1
20260508002403 76 100 5.0 11.0 0.00 0.01 0.01 78 1012.0
20260508001902 76 60 5.0 10.0 0.00 0.01 0.01 78 1012.1
20260508001358 76 55 5.0 10.0 0.00 0.01 0.01 78 1012.1
20260508000242 77 69 5.0 10.0 0.00 0.01 0.01 77 1012.1
20260507235120 77 77 5.0 10.0 0.00 0.01 0.01 77 1012.1
20260507234612 77 48 5.0 10.0 0.00 0.01 0.01 77 1012.0
20260507232119 77 78 5.0 10.0 0.00 0.01 0.01 76 1012.0
20260507230947 78 96 4.0 9.0 0.00 0.01 0.01 75 1012.0
20260507230439 78 50 4.0 8.0 0.00 0.01 0.01 74 1012.0
20260507225934 77 38 4.0 10.0 0.00 0.01 0.01 74 1012.1
20260507224810 77 22 4.0 10.0 0.00 0.01 0.01 74 1011.9
20260507224306 77 12 5.0 10.0 0.00 0.01 0.01 75 1011.9
20260507223800 77 38 5.0 11.0 0.00 0.01 0.01 75 1011.8
20260507222625 76 350 5.0 13.0 0.00 0.01 0.01 76 1011.8
20260507222115 76 51 6.0 13.0 0.00 0.01 0.01 76 1011.9
20260507220951 75 50 6.0 13.0 0.00 0.01 0.01 76 1012.3
20260507215819 75 17 6.0 10.0 0.00 0.01 0.01 76 1012.2
20260507215307 75 16 6.0 10.0 0.00 0.01 0.01 76 1012.3
20260507214745 75 34 6.0 10.0 0.00 0.01 0.01 76 1012.4
20260507214247 75 36 6.0 10.0 0.00 0.01 0.01 76 1012.4
20260507213138 74 52 8.0 13.0 0.00 0.01 0.01 77 1012.4
20260507211952 74 34 8.0 14.0 0.00 0.01 0.01 76 1012.6
20260507211442 74 36 7.0 14.0 0.00 0.01 0.01 77 1012.7
20260507210937 74 2 7.0 14.0 0.00 0.01 0.01 77 1012.8
20260507210443 73 41 8.0 14.0 0.00 0.01 0.01 77 1012.8
20260507205319 73 19 8.0 16.0 0.00 0.01 0.01 77 1012.8
20260507204821 73 19 8.0 16.0 0.00 0.01 0.01 77 1012.9
20260507204310 73 357 9.0 16.0 0.00 0.01 0.01 78 1012.9
20260507203803 72 70 9.0 14.0 0.00 0.01 0.01 78 1013.0
20260507203256 72 2 7.0 14.0 0.00 0.01 0.01 78 1013.1
20260507202753 72 357 7.0 13.0 0.00 0.01 0.01 78 1013.2
20260507202239 72 2 6.0 13.0 0.00 0.01 0.01 78 1013.2
20260507201728 72 13 6.0 13.0 0.00 0.01 0.01 79 1013.3
20260507201221 71 32 8.0 13.0 0.00 0.01 0.01 79 1013.3
20260507200100 71 22 8.0 13.0 0.00 0.01 0.01 79 1013.5
20260507195547 71 2 8.0 14.0 0.00 0.01 0.01 79 1013.5
20260507195045 71 34 8.0 14.0 0.00 0.01 0.01 79 1013.7
20260507194532 71 357 9.0 17.0 0.00 0.01 0.01 80 1013.6
20260507193415 70 32 8.0 17.0 0.00 0.01 0.01 80 1013.6
20260507192242 70 35 8.0 14.0 0.00 0.01 0.01 80 1013.8
20260507191743 70 11 7.0 14.0 0.00 0.01 0.01 81 1013.9
20260507191248 70 357 7.0 15.0 0.00 0.01 0.01 81 1013.8
20260507190728 70 11 9.0 15.0 0.00 0.01 0.01 80 1013.9
20260507185533 70 11 8.0 15.0 0.00 0.01 0.01 80 1014.0
20260507185036 70 90 8.0 16.0 0.00 0.01 0.01 80 1014.0
20260507184534 70 44 9.0 16.0 0.00 0.01 0.01 80 1014.0
20260507184012 70 2 9.0 16.0 0.00 0.01 0.01 80 1014.0
20260507183452 70 48 8.0 16.0 0.00 0.01 0.01 80 1014.1
20260507182948 70 2 7.0 15.0 0.00 0.01 0.01 80 1014.3
20260507182446 70 32 9.0 16.0 0.00 0.01 0.01 80 1014.4
20260507181935 70 16 10.0 16.0 0.00 0.01 0.01 80 1014.2
20260507181422 70 32 10.0 16.0 0.00 0.01 0.01 80 1014.3
20260507180236 70 16 8.0 14.0 0.00 0.01 0.01 80 1014.5
20260507175109 71 11 8.0 17.0 0.00 0.01 0.01 80 1014.5
20260507174613 71 357 9.0 17.0 0.00 0.01 0.01 80 1014.4
20260507174112 70 14 10.0 17.0 0.00 0.01 0.01 81 1014.4